GW0515 Weather Reports


time (UTC)temp
C
wind
direction
speed
KPH
gust
KPH
rain 1hr
cm
rain 24hr
cm
rain mn
cm
humidity
%
barometer
mb
20260502163338 15 267 6.4 11.3 0.00 0.00 0.00 80 1013.5
20260502162331 15 285 6.4 9.7 0.00 0.00 0.00 81 1013.7
20260502161831 15 265 4.8 9.7 0.00 0.00 0.00 81 1013.7
20260502161331 15 259 4.8 9.7 0.00 0.00 0.00 80 1013.6
20260502160830 15 291 4.8 8.0 0.00 0.00 0.00 81 1013.6
20260502160330 15 291 6.4 9.7 0.00 0.00 0.00 81 1013.6
20260502152323 15 248 12.9 19.3 0.00 0.00 0.00 77 1014.4
20260502151823 15 249 11.3 16.1 0.00 0.00 0.00 77 1014.4
20260502151323 15 245 11.3 20.9 0.00 0.00 0.00 77 1014.5
20260502150824 15 238 12.9 20.9 0.00 0.00 0.00 77 1014.5
20260502150323 15 240 11.3 20.9 0.00 0.00 0.00 76 1014.5
20260502130148 19 227 14.5 24.1 0.00 0.00 0.00 61 1015.1
20260502123810 20 257 16.1 27.4 0.00 0.00 0.00 59 1015.1
20260502123309 20 226 14.5 27.4 0.00 0.00 0.00 56 1015.1
20260502122807 21 213 12.9 24.1 0.00 0.00 0.00 50 1015.1
20260502122307 21 192 12.9 24.1 0.00 0.00 0.00 47 1015.1
20260502121807 21 206 12.9 24.1 0.00 0.00 0.00 48 1015.1
20260502121308 21 218 12.9 24.1 0.00 0.00 0.00 49 1015.2
20260502121103 21 196 12.9 22.5 0.00 0.00 0.00 50 1015.2
20260502120307 21 196 11.3 22.5 0.00 0.00 0.00 50 1015.2
20260502115807 21 194 12.9 19.3 0.00 0.00 0.00 50 1015.4
20260502115306 21 220 12.9 19.3 0.00 0.00 0.00 51 1015.4
20260502114806 21 185 12.9 24.1 0.00 0.00 0.00 53 1015.4
20260502114306 21 183 12.9 27.4 0.00 0.00 0.00 51 1015.6
20260502113806 20 194 14.5 27.4 0.00 0.00 0.00 52 1015.6
20260502113305 20 197 14.5 29.0 0.00 0.00 0.00 52 1015.6
20260502112805 20 200 14.5 29.0 0.00 0.00 0.00 51 1015.6
20260502112306 21 213 12.9 20.9 0.00 0.00 0.00 53 1015.6
20260502111805 20 174 12.9 22.5 0.00 0.00 0.00 56 1015.6
20260502111306 20 168 14.5 22.5 0.00 0.00 0.00 52 1015.7
20260502110803 20 164 12.9 22.5 0.00 0.00 0.00 55 1015.7
20260502110303 20 182 11.3 19.3 0.00 0.00 0.00 57 1015.7
20260502105802 20 218 12.9 24.1 0.00 0.00 0.00 58 1015.8
20260502105301 20 202 12.9 24.1 0.00 0.00 0.00 55 1015.8
20260502104801 20 187 11.3 20.9 0.00 0.00 0.00 55 1015.8
20260502104301 20 202 11.3 22.5 0.00 0.00 0.00 56 1016.0
20260502103804 20 190 11.3 24.1 0.00 0.00 0.00 56 1016.0
20260502103318 19 172 14.5 24.1 0.00 0.00 0.00 57 1016.0
20260502102305 19 188 12.9 24.1 0.00 0.00 0.00 59 1016.1
20260502101802 19 197 12.9 25.7 0.00 0.00 0.00 59 1016.1
20260502101301 19 213 16.1 27.4 0.00 0.00 0.00 60 1016.2
20260502101109 19 212 16.1 27.4 0.00 0.00 0.00 59 1016.2
20260502100535 19 213 12.9 25.7 0.00 0.00 0.00 58 1016.2
20260502091256 18 188 14.5 29.0 0.00 0.00 0.00 62 1016.6
20260502090753 19 175 12.9 22.5 0.00 0.00 0.00 62 1016.6
20260502090252 19 221 12.9 22.5 0.00 0.00 0.00 61 1016.6
20260502071227 17 222 11.3 25.7 0.00 0.00 0.00 65 1017.0
20260502070722 17 226 9.7 25.7 0.00 0.00 0.00 67 1017.0
20260502070218 17 167 11.3 22.5 0.00 0.00 0.00 68 1017.0
20260502065721 16 197 11.3 20.9 0.00 0.00 0.00 68 1017.1
20260502065218 16 156 11.3 19.3 0.00 0.00 0.00 70 1017.1
20260502064719 16 159 11.3 19.3 0.00 0.00 0.00 70 1017.1
20260502064211 16 167 11.3 19.3 0.00 0.00 0.00 70 1017.1
20260502063714 16 177 9.7 19.3 0.00 0.00 0.00 70 1017.1
20260502063211 16 175 11.3 19.3 0.00 0.00 0.00 71 1017.1
20260502062709 15 163 11.3 19.3 0.00 0.00 0.00 72 1017.1
20260502062435 15 169 9.7 19.3 0.00 0.00 0.00 72 1017.1
20260502061708 15 202 9.7 16.1 0.00 0.00 0.00 73 1017.1
20260502061210 15 177 9.7 16.1 0.00 0.00 0.00 73 1017.1
20260502060711 15 155 9.7 17.7 0.00 0.00 0.00 74 1017.1
20260502060222 15 169 8.0 17.7 0.00 0.00 0.00 74 1017.1
20260502055206 14 169 8.0 16.1 0.00 0.00 0.00 76 1017.2
20260502054932 14 178 8.0 14.5 0.00 0.00 0.00 77 1017.2
20260502054436 13 168 8.0 19.3 0.00 0.00 0.00 77 1017.1
20260502053704 13 166 9.7 19.3 0.00 0.00 0.00 77 1017.1
20260502053210 13 175 9.7 14.5 0.00 0.00 0.00 78 1017.1
20260502052704 13 164 9.7 14.5 0.00 0.00 0.00 78 1017.1
20260502052201 13 171 9.7 19.3 0.00 0.00 0.00 78 1017.1
20260502051927 12 183 8.0 19.3 0.00 0.00 0.00 78 1017.1
20260502051200 12 177 9.7 16.1 0.00 0.00 0.00 78 1017.1
20260502050658 12 167 9.7 16.1 0.00 0.00 0.00 78 1017.1
20260502045925 12 179 8.0 17.7 0.00 0.00 0.00 79 1017.2
20260502045423 11 150 8.0 12.9 0.00 0.00 0.00 80 1017.2
20260502044653 11 153 8.0 16.1 0.00 0.00 0.00 80 1017.2
20260502044153 11 164 9.7 16.1 0.00 0.00 0.00 80 1017.2
20260502043653 11 159 8.0 14.5 0.00 0.00 0.00 80 1017.2
20260502043153 11 171 8.0 14.5 0.00 0.00 0.00 80 1017.2
20260502042654 11 152 8.0 12.9 0.00 0.00 0.00 80 1017.4
20260502042154 11 164 8.0 12.9 0.00 0.00 0.00 80 1017.4
20260502041654 10 151 8.0 12.9 0.00 0.00 0.00 80 1017.4
20260502041154 10 169 8.0 12.9 0.00 0.00 0.00 79 1017.5
20260502040654 10 142 8.0 12.9 0.00 0.00 0.00 79 1017.5
20260502040154 10 169 8.0 12.9 0.00 0.00 0.00 79 1017.5
20260502035653 10 147 8.0 12.9 0.00 0.00 0.00 78 1017.6
20260502035154 10 155 8.0 14.5 0.00 0.00 0.00 78 1017.6
20260502034647 10 154 8.0 14.5 0.00 0.00 0.00 78 1017.6
20260502034146 10 150 9.7 14.5 0.00 0.00 0.00 77 1017.7
20260502033636 10 159 9.7 14.5 0.00 0.00 0.00 77 1017.7
20260502033136 10 155 9.7 14.5 0.00 0.00 0.00 77 1017.7
20260502032636 10 153 8.0 12.9 0.00 0.00 0.00 77 1017.8
20260502032137 10 150 8.0 12.9 0.00 0.00 0.00 77 1017.8
20260502031636 10 150 8.0 12.9 0.00 0.00 0.00 76 1017.8
20260502031138 11 149 8.0 12.9 0.00 0.00 0.00 76 1018.1
20260502030636 11 146 8.0 12.9 0.00 0.00 0.00 75 1018.1
20260502030136 11 146 8.0 16.1 0.00 0.00 0.00 75 1018.1
20260502025635 11 150 9.7 16.1 0.00 0.00 0.00 75 1018.2
20260502025135 11 144 9.7 14.5 0.00 0.00 0.00 75 1018.2
20260502024638 11 146 8.0 14.5 0.00 0.00 0.00 75 1018.2
20260502024136 11 144 9.7 14.5 0.00 0.00 0.00 75 1018.4
20260502023635 11 142 9.7 14.5 0.00 0.00 0.00 75 1018.4
20260502023132 11 143 8.0 14.5 0.00 0.00 0.00 75 1018.4
20260502022633 10 147 8.0 12.9 0.00 0.00 0.00 75 1018.6
20260502022131 10 141 8.0 12.9 0.00 0.00 0.00 75 1018.6
20260502021631 10 148 8.0 12.9 0.00 0.00 0.00 75 1018.6
20260502021131 10 141 6.4 12.9 0.00 0.00 0.00 75 1018.7
20260502020631 10 142 6.4 12.9 0.00 0.00 0.00 75 1018.7
20260502020130 11 142 8.0 12.9 0.00 0.00 0.00 75 1018.7
20260502015630 10 138 8.0 12.9 0.00 0.00 0.00 76 1019.0
20260502015130 10 136 8.0 11.3 0.00 0.00 0.00 76 1019.0
20260502014630 10 140 6.4 11.3 0.00 0.00 0.00 76 1019.0
20260502014129 10 138 6.4 11.3 0.00 0.00 0.00 76 1019.2
20260502013630 10 137 6.4 11.3 0.00 0.00 0.00 76 1019.2
20260502013129 10 138 4.8 9.7 0.00 0.00 0.00 77 1019.2
20260502012630 10 138 6.4 11.3 0.00 0.00 0.00 77 1019.3
20260502012129 10 142 6.4 12.9 0.00 0.00 0.00 77 1019.3
20260502011629 10 135 6.4 12.9 0.00 0.00 0.00 77 1019.3
20260502011129 10 138 6.4 12.9 0.00 0.00 0.00 77 1019.6
20260502010631 10 132 6.4 12.9 0.00 0.00 0.00 77 1019.6
20260502010130 10 133 6.4 12.9 0.00 0.00 0.00 78 1019.6
20260502005856 10 127 6.4 12.9 0.00 0.00 0.00 78 1019.7
20260502005130 10 127 6.4 11.3 0.00 0.00 0.00 78 1019.7
20260502004629 10 124 6.4 12.9 0.00 0.00 0.00 78 1019.7
20260502004129 10 127 6.4 12.9 0.00 0.00 0.00 78 1019.8
20260502003629 10 126 6.4 11.3 0.00 0.00 0.00 78 1019.8
20260502003131 10 128 6.4 11.3 0.00 0.00 0.00 78 1019.8
20260502002629 10 126 6.4 12.9 0.00 0.00 0.00 78 1020.0
20260502002407 10 123 6.4 12.9 0.00 0.00 0.00 77 1020.0
20260502001628 10 123 4.8 11.3 0.00 0.00 0.00 77 1020.0
20260502001129 10 124 6.4 11.3 0.00 0.00 0.00 77 1020.1
20260502000627 10 125 6.4 11.3 0.00 0.00 0.00 77 1020.1
20260502000127 10 127 6.4 11.3 0.00 0.00 0.00 77 1020.1
20260501235910 11 126 6.4 11.3 0.00 0.00 0.00 77 1020.2
20260501235127 11 129 6.4 12.9 0.00 0.00 0.00 77 1020.2
20260501234626 10 126 6.4 12.9 0.00 0.00 0.00 77 1020.2
20260501234126 10 127 6.4 11.3 0.00 0.00 0.00 77 1020.3
20260501233627 11 126 6.4 11.3 0.00 0.00 0.00 76 1020.3
20260501233127 11 126 6.4 12.9 0.00 0.00 0.00 76 1020.3
20260501232623 11 123 6.4 12.9 0.00 0.00 0.00 76 1020.5
20260501232123 11 123 6.4 12.9 0.00 0.00 0.00 76 1020.5
20260501231621 11 123 6.4 12.9 0.00 0.00 0.00 75 1020.5
20260501231120 11 120 6.4 11.3 0.00 0.00 0.00 75 1020.7
20260501230618 11 123 6.4 12.9 0.00 0.00 0.00 75 1020.7
20260501230114 11 123 6.4 12.9 0.00 0.00 0.00 75 1020.7
20260501225611 11 119 6.4 11.3 0.00 0.00 0.00 74 1020.7
20260501225347 11 117 6.4 12.9 0.00 0.00 0.00 74 1020.7
20260501224606 11 119 6.4 12.9 0.00 0.00 0.00 74 1020.7
20260501224105 11 117 6.4 12.9 0.00 0.00 0.00 73 1020.8
20260501223603 11 115 4.8 12.9 0.00 0.00 0.00 73 1020.8
20260501223103 11 115 4.8 12.9 0.00 0.00 0.00 73 1020.8
20260501222604 12 113 6.4 12.9 0.00 0.00 0.00 72 1020.9
20260501222104 12 121 6.4 12.9 0.00 0.00 0.00 72 1020.9
20260501221604 12 121 8.0 12.9 0.00 0.00 0.00 72 1020.9
20260501221333 12 120 8.0 14.5 0.00 0.00 0.00 71 1021.1
20260501220838 12 118 8.0 14.5 0.00 0.00 0.00 71 1021.1
20260501220331 12 116 6.4 14.5 0.00 0.00 0.00 71 1021.1
20260501215558 12 117 6.4 14.5 0.00 0.00 0.00 71 1021.2
20260501215057 12 117 6.4 12.9 0.00 0.00 0.00 71 1021.2
20260501214556 12 113 6.4 12.9 0.00 0.00 0.00 70 1021.2
20260501214305 12 117 6.4 12.9 0.00 0.00 0.00 70 1021.2
20260501214048 12 117 6.4 12.9 0.00 0.00 0.00 70 1021.2
20260501213534 12 119 6.4 12.9 0.00 0.00 0.00 70 1021.2
20260501213033 13 115 4.8 12.9 0.00 0.00 0.00 69 1021.2
20260501212534 13 115 4.8 11.3 0.00 0.00 0.00 69 1021.3
20260501212033 13 115 6.4 12.9 0.00 0.00 0.00 69 1021.3
20260501211533 13 113 6.4 12.9 0.00 0.00 0.00 68 1021.3
20260501211033 13 117 6.4 12.9 0.00 0.00 0.00 68 1021.5
20260501210534 13 111 6.4 12.9 0.00 0.00 0.00 68 1021.5
20260501210033 13 120 6.4 12.9 0.00 0.00 0.00 68 1021.5
20260501205533 13 112 6.4 12.9 0.00 0.00 0.00 68 1021.7
20260501205032 13 114 4.8 12.9 0.00 0.00 0.00 68 1021.7
20260501204531 13 110 4.8 11.3 0.00 0.00 0.00 68 1021.7
20260501204031 13 110 6.4 12.9 0.00 0.00 0.00 69 1021.7
20260501203804 13 111 6.4 12.9 0.00 0.00 0.00 69 1021.7
20260501203039 13 109 8.0 12.9 0.00 0.00 0.00 68 1021.7
20260501202312 14 115 8.0 14.5 0.00 0.00 0.00 68 1021.8
20260501201531 14 116 8.0 14.5 0.00 0.00 0.00 68 1021.8
20260501201031 14 111 8.0 12.9 0.00 0.00 0.00 68 1021.9
20260501200518 15 115 8.0 12.9 0.00 0.00 0.00 67 1021.9
20260501200018 15 103 8.0 12.9 0.00 0.00 0.00 67 1021.9
20260501195508 15 107 8.0 12.9 0.00 0.00 0.00 67 1022.0
20260501195248 15 113 8.0 12.9 0.00 0.00 0.00 67 1022.0
20260501194759 15 117 6.4 12.9 0.00 0.00 0.00 68 1022.0
20260501194010 15 119 6.4 11.3 0.00 0.00 0.00 69 1022.1
20260501193739 15 109 6.4 11.3 0.00 0.00 0.00 69 1022.1
20260501193009 15 89 6.4 11.3 0.00 0.00 0.00 68 1022.1
20260501192505 15 89 8.0 11.3 0.00 0.00 0.00 68 1022.1
20260501192009 15 89 6.4 11.3 0.00 0.00 0.00 67 1022.1
20260501191738 15 89 4.8 9.7 0.00 0.00 0.00 66 1022.1
20260501191012 16 78 4.8 8.0 0.00 0.00 0.00 66 1022.1
20260501190504 16 78 3.2 8.0 0.00 0.00 0.00 65 1022.1
20260501190013 16 78 4.8 11.3 0.00 0.00 0.00 65 1022.1
20260501185741 16 78 6.4 11.3 0.00 0.00 0.00 63 1022.0
20260501185001 17 77 4.8 11.3 0.00 0.00 0.00 62 1022.0
20260501184453 17 275 3.2 8.0 0.00 0.00 0.00 61 1022.0
20260501183946 17 274 3.2 4.8 0.00 0.00 0.00 59 1022.3
20260501183442 17 274 3.2 4.8 0.00 0.00 0.00 59 1022.3
20260501182941 18 274 3.2 4.8 0.00 0.00 0.00 58 1022.3
20260501182440 18 274 3.2 6.4 0.00 0.00 0.00 58 1022.3
20260501181941 18 274 4.8 6.4 0.00 0.00 0.00 57 1022.3
20260501181439 18 274 3.2 6.4 0.00 0.00 0.00 56 1022.3
20260501181222 18 274 3.2 6.4 0.00 0.00 0.00 55 1022.3
20260501180439 19 274 3.2 6.4 0.00 0.00 0.00 54 1022.3
20260501175939 19 274 3.2 4.8 0.00 0.00 0.00 54 1022.3
20260501175438 19 274 3.2 6.4 0.00 0.00 0.00 53 1022.4
20260501175228 19 274 3.2 6.4 0.00 0.00 0.00 52 1022.4
20260501174437 19 274 3.2 6.4 0.00 0.00 0.00 51 1022.4
20260501173935 20 274 3.2 6.4 0.00 0.00 0.00 51 1022.7
20260501173433 20 274 1.6 4.8 0.00 0.00 0.00 49 1022.7
20260501172930 20 274 0.0 3.2 0.00 0.00 0.00 48 1022.9
20260501172420 20 274 1.6 3.2 0.00 0.00 0.00 48 1022.9
20260501172159 20 274 1.6 4.8 0.00 0.00 0.00 49 1022.9
20260501171409 20 274 3.2 4.8 0.00 0.00 0.00 51 1023.3
20260501170905 20 274 3.2 6.4 0.00 0.00 0.00 50 1023.3
20260501170404 20 274 3.2 6.4 0.00 0.00 0.00 51 1023.3
20260501165903 20 274 3.2 6.4 0.00 0.00 0.00 49 1023.3
20260501165406 19 274 4.8 6.4 0.00 0.00 0.00 49 1023.3
20260501164903 19 274 4.8 6.4 0.00 0.00 0.00 49 1023.3
20260501164402 19 274 4.8 6.4 0.00 0.00 0.00 48 1023.6
20260501163902 19 274 4.8 6.4 0.00 0.00 0.00 49 1023.6